Regional Weather Roundup
Issued by NWS Grand Forks, ND

Home | Current Version | Previous Version | Graphics & Text | Print | Product List | Glossary On
Versions: 1 2 3 4 5 6 7 8 9 10 11 12 13 14 15 16 17 18 19 20 21 22 23 24 25 26 27 28 29 30 31 32 33 34 35 36 37 38 39 40 41 42 43 44 45 46 47 48 49 50
000
ASUS43 KFGF 261610
RWRFGF
PRAIRIE TO PINES  WEATHER ROUNDUP
NATIONAL WEATHER SERVICE EASTERN NORTH DAKOTA/GRAND FORKS ND
1100 AM CDT SAT JUL 26 2014

 **SATELLITE DATA USED TO AUGMENT SKY COVER AT AUTOMATED STATIONS**
 *****  WEATHER ACROSS EASTERN NORTH DAKOTA  *****

CITY           SKY/WX    TMP DP  RH WIND       PRES   REMARKS
GRAND FORKS    MOSUNNY   73  58  59 W14G21    29.75R
GRAND FRKS AFB SUNNY     73  58  58 W14       29.76S
GRAND FRKS NWS   N/A     73 N/A N/A NW12        N/A
DEVILS LAKE    MOSUNNY   68  54  60 W24G32    29.76F
FARGO          SUNNY     79  65  62 SW15      29.77F
WAHPETON ARPT  SUNNY     77  63  61 W16       29.82S
$$

 ***** WEATHER ACROSS CENTRAL AND WESTERN NORTH DAKOTA  *****

CITY           SKY/WX    TMP DP  RH WIND       PRES   REMARKS
BISMARCK       SUNNY     72  49  44 W16G26    29.90S
MINOT          PTSUNNY   66  52  60 W22G32    29.81S
JAMESTOWN      SUNNY     72  54  53 NW21G29   29.83S
MINOT AFB      PTSUNNY   66  55  67 W22G32    29.79F
GARRISON         N/A     67  54  63 W22G29    29.86F
WILLISTON      CLOUDY    65  50  58 W22G35    29.91S
DICKINSON      SUNNY     67  50  54 W21G29    29.95F
HETTINGER      SUNNY     73  46  38 W21G32    30.01R
$$

 *****  OTHER AIRPORT OBSERVATIONS IN OUR AREA  *****

CITY           SKY/WX    TMP DP  RH WIND       PRES   REMARKS
WALHALLA         N/A     68  55  64 W16G25      N/A
GRAFTON AIRPOR FAIR      72  57  60 W20       29.73S
VALLEY CITY AR FAIR      73  57  56 NW16G22   29.82R
CANDO          FAIR      66  54  63 W20G31    29.76F
CAVALIER APRT  FAIR      66  55  68 W16G23    29.72R
GWINNER        SUNNY     75  63  64 W13       29.84S
SHEYENNE NWR     N/A     77  63  61 W9        29.95S
ROLLA          CLOUDY    61  55  82 W16G23    29.75S
 ***** THE ABOVE OBSERVATIONS ARE NON NWS ARE NOT QUALITY
       CONTROLLED AND MAY MIS-REPORT RAIN FOR SNOW...
$$

  *****  WEATHER ACROSS NORTHERN MINNESOTA  *****

CITY           SKY/WX    TMP DP  RH WIND       PRES   REMARKS
FLAG ISLAND    SUNNY     72  61  68 S10       29.70F
WARROAD        MOSUNNY   75  61  60 SW12G17   29.72F
ROSEAU         SUNNY     77  63  61 SW15      29.70F
HALLOCK        MOSUNNY   73  57  56 W14       29.71S
THF RVR FALLS  SUNNY     73  61  64 SW14G21   29.75S
BAUDETTE       PTSUNNY   75  59  57 S9        29.74F
WASKISH        SUNNY     79  57  47 CALM      29.75F
CROOKSTON      SUNNY     73  61  64 NW16      29.76R
$$
  *****  WEATHER ACROSS CENTRAL AND WEST MINNESOTA  *****

CITY           SKY/WX    TMP DP  RH WIND       PRES   REMARKS
FOSSTON        SUNNY     73  61  64 SW13      29.78F
BEMIDJI        SUNNY     77  56  49 SW7       29.78S
PARK RAPIDS    SUNNY     79  59  50 SW14      29.81R
ELBOW LAKE     FAIR      75  62  64 SW14      29.84R
WADENA         SUNNY     75  57  53 SW9       29.83R
DETROIT LAKES  SUNNY     75  57  53 SW10G16   29.83F
MOORHEAD       SUNNY     77  64  65 SW10      29.79F
FERGUS FALLS   SUNNY     75  61  60 SW12      29.83R
MORRIS MN      SUNNY     77  66  69 SW7       29.84F
STAPLES        SUNNY     77  57  50 SW9       29.83R
$$
  *****  WEATHER ELSEWHERE ACROSS MINNESOTA  *****

CITY           SKY/WX    TMP DP  RH WIND       PRES   REMARKS
DULUTH         SUNNY     77  55  46 VRB6      29.79F
INTRNTL FALLS  SUNNY     74  58  57 W8        29.76S
ELY            SUNNY     73  54  49 W12G17    29.78S
CLOQUET        SUNNY     75  54  46 NW6       29.79F
WHEATON        NOT AVBL
BRAINERD       SUNNY     76  59  55 SW9       29.82R
HIBBING        SUNNY     77  55  46 NW6       29.79F
ALEXANDRIA     SUNNY     77  60  55 SW10      29.86R
SAINT CLOUD    SUNNY     80  61  52 SW8       29.82S
MINNEAPOLIS    PTSUNNY   80  64  58 NE6       29.82S
$$

  *****  WEATHER ACROSS SOUTH DAKOTA  *****

CITY           SKY/WX    TMP DP  RH WIND       PRES   REMARKS
SIOUX FALLS    TSTM      71  70  96 N7        29.93R FOG
BROOKINGS      NOT AVBL
WATERTOWN      PTSUNNY   72  67  84 W8        29.89R
HURON          CLOUDY    73  68  84 NW9       29.91R
SISSETON         N/A     80  67  64 W16G22    29.83F
ABERDEEN       MOSUNNY   80  65  59 W14G20    29.87R
MITCHELL       CLOUDY    68  65  90 SW6       29.91F
PIERRE         MOSUNNY   79  64  60 N16G22    29.92R
MOBRIDGE       SUNNY     74  53  48 NW15      29.91R
RAPID CITY     SUNNY     74  47  38 NW18      30.07R
$$

  *****  SOME WEATHER IN NEARBY STATES *****

CITY           SKY/WX    TMP DP  RH WIND       PRES   REMARKS
GLASGOW MT     CLOUDY    63  50  62 W17G29    30.02R
GREAT FALLS MT SUNNY     66  39  37 VRB3      30.18R
CHEYENNE WY    PTSUNNY   71  35  26 N10G23    30.23R
SCOTTSBLUFF NE MOSUNNY   78  50  37 W9        30.09S
OMAHA NE       MOSUNNY   83  71  67 SE12      29.84F
DES MOINES IA  PTSUNNY   81  69  67 E7        29.84R
DAVENPORT IA   PTSUNNY   74  66  76 E5        29.86R
CHICAGO IL     PTSUNNY   77  63  61 CALM      29.84R
EAU CLAIRE WI  MOSUNNY   81  66  60 NW7       29.80F
LA CROSSE WI   CLOUDY    74  67  78 SW5       29.84R
$$

  *****  SOME NATIONAL WEATHER *****

CITY           SKY/WX    TMP DP  RH WIND       PRES   REMARKS
LA GUARDIA NY  CLOUDY    77  60  55 SW8       29.98F
RALEIGH NC     PTSUNNY   80  71  74 SW5       30.05S
ATLANTA GA     MOSUNNY   84  67  56 W14G20    30.08S
NEW ORLEANS LA PTSUNNY   87  75  67 NW6       30.10R HX  96
OKLAHOMA CITY  MOSUNNY   92  68  45 SW16      29.96F HX  96
ALBUQUERQUE NM SUNNY     81  47  30 CALM      30.21S
SALT LAKE CITY MOSUNNY   81  44  27 NW6       30.14R
LOS ANGELES CA PTSUNNY   68  64  88 SW3       29.99R FOG
BOISE ID       SUNNY     75  32  20 S6        30.15R
SEATTLE WA     SUNNY     65  52  62 NE7       30.18S
$$

*** WEATHER ACROSS MANITOBA...SASKATCHEWAN AND ONTARIO ***
                ***ONTARIO***

CITY           SKY/WX    TMP DP  RH WIND       PRES   REMARKS
GERALDTON      CLOUDY    61  61 100 NE12      29.70F
THUNDER BAY    PTSUNNY   63  59  88 E10       29.71R FOG
SIOUX LOOKOUT  MOSUNNY   72  61  68 W8        29.73R
TORONTO        PTSUNNY   77  59  53 W6G21     29.90F
BIG TROUT LK   CLOUDY    52  45  76 NE9G17    29.91R
PICKLE LAKE    CLOUDY    55  50  82 E13G18    29.79R
DRYDEN         SUNNY     73  57  56 W9        29.74S
KENORA         PTSUNNY   73  55  53 SW7       29.73F
$$
                *** MANITOBA***

CITY           SKY/WX    TMP DP  RH WIND       PRES   REMARKS
BRANDON        PTSUNNY   66  55  68 W25       29.65F
DAUPHIN        LGT RAIN  61  57  88 W6        29.61R
ISLAND LAKE    CLOUDY    55  46  71 E15G21    29.87R
PILOT MOUND      N/A     63  52  67 W13G21      N/A
THE PAS        CLOUDY    57  54  88 NE10      29.83R
THOMPSON       CLOUDY    54  48  82 NE13      29.99R
WINNIPEG       MOSUNNY   70  55  60 SW10G20   29.67F
LYNN LAKE      CLOUDY    54  46  76 E12G23    30.02S
CHURCHILL      FOG       48  48 100 N12       30.13S VSB 1/2
GILLAM         PTSUNNY   55  50  82 NE10G17   30.03S
$$
                ***SASKATCHEWAN***

CITY           SKY/WX    TMP DP  RH WIND       PRES   REMARKS
ESTEVAN        LGT RAIN  61  57  88 W17G25    29.80R
KINDERSLEY     CLOUDY    61  54  77 NW12G18   29.99R
LLOYDMINSTER   PTSUNNY   63  59  88 W10       29.97S
PRINCE ALBERT  CLOUDY    63  59  88 NE12      29.86R
REGINA         LGT RAIN  59  57  94 NW20G28   29.83R
YORKTON        LGT RAIN  59  57  94 N12G18    29.69R
N. BATTLEFORD  CLOUDY    61  57  88 NW13      29.95R
LA RONGE       MOSUNNY   64  57  77 NE9       29.93R
SASKATOON      PTSUNNY   61  57  88 NW15      29.89R
SWIFT CURRENT  CLOUDY    57  55  94 W14G25    29.98R
$$
NOTE: THESE ARE AUTOMATED STATIONS WITH LIMITED QUALITY CONTROL
      "FAIR" INDICATES FEW OR NO CLOUDS BELOW 12,000 FEET WITH NO
      SIGNIFICANT WEATHER AND/OR OBSTRUCTIONS TO VISIBILITY.
      SKY/WX - SKY CONDITION AND SIGNIFICANT WEATHER.
      TMP - AIR TEMPERATURE.    DP   - DEWPOINT TEMPERATURE.
      RH  - RELATIVE HUMIDITY.  PRES - PRESSURE.
      HX  - HEAT INDEX.         WCI  - WIND CHILL INDEX.
$



USA.gov is the U.S. government's official web portal to all federal, state and local government web resources and services.